Lid_Strength_Index
2 2 2 1 1 0 1 1 1 0 -0 -0 -0 0 1 1 2 5 8 4 3 0 0 4 5 5 6 7 7 7 11 14 12 12 11 9 10 9 6 7 7 6 7 5 3
3 2 2 1 1 1 0 1 1 0 0 -0 -0 -0 0 2 4 6 4 1 1 1 5 5 6 6 8 8 7 9 12 11 9 8 10 9 9 8 8 9 8 6 4 4 3
2 2 2 1 1 1 0 0 1 1 0 -0 -0 -1 -0 2 6 7 2 1 1 2 4 4 5 7 9 9 8 9 11 10 9 8 8 9 10 8 8 10 8 8 6 5 5
2 2 1 1 1 0 1 0 1 1 -0 -0 -1 -1 -1 2 14 5 1 1 1 4 5 6 7 9 9 9 8 10 8 8 8 9 8 10 9 9 8 8 6 5 5 6 4
2 2 2 1 1 0 -0 0 0 1 -0 -0 -1 -1 2 6 6 2 1 2 4 6 6 7 9 9 10 9 9 9 9 8 9 9 9 7 8 8 8 5 4 5 6 5 5
2 2 2 1 -0 -0 -1 -0 0 -0 -0 -1 -1 -1 5 10 3 3 4 3 5 6 7 6 8 8 9 10 9 8 8 9 9 10 9 9 11 8 12 8 9 10 10 11 11
2 1 1 1 -0 -1 -1 -1 -0 -1 -0 -1 -1 1 5 7 2 3 3 5 5 5 7 6 6 8 9 10 8 9 10 10 10 10 10 10 13 13 12 11 11 10 10 10 10
1 1 0 -1 -1 -1 -1 -1 -1 -1 -1 -1 -1 3 8 3 2 2 3 4 3 3 5 5 5 7 8 7 8 11 11 13 11 10 11 10 14 14 11 11 12 12 12 12 12
1 0 -0 -1 -1 -1 -1 -2 -1 -1 -1 -1 4 6 9 2 4 3 3 4 3 2 3 4 5 9 8 10 12 11 15 14 13 12 12 12 16 14 11 11 12 11 13 12 13
1 -0 -1 -1 -1 -1 -1 -1 -1 -1 0 1 1 8 7 7 4 3 3 3 4 4 5 6 8 11 11 12 17 15 14 14 14 13 13 15 16 14 12 12 13 13 14 13 13
0 -1 -1 -1 -1 -1 1 3 6 7 5 8 9 7 6 4 3 4 3 4 4 7 10 8 11 14 12 11 10 11 12 13 14 12 14 16 15 15 13 12 13 13 13 14 14
0 -1 -1 -1 -1 -1 2 5 6 5 8 5 5 5 4 4 7 6 3 7 8 11 9 11 13 10 10 10 10 12 13 14 11 11 14 15 16 14 14 14 14 14 14 13 13
-0 -1 -1 -1 -1 1 4 4 1 3 9 8 5 6 6 5 8 7 5 7 10 11 11 13 11 8 10 11 12 12 13 14 13 12 12 14 15 15 15 14 14 14 14 13 13
-0 -1 -2 -1 2 4 5 2 2 5 18 12 8 6 5 5 9 5 4 7 9 11 11 11 9 10 11 11 10 14 10 11 13 14 17 13 19 14 16 16 15 14 14 14 14
-1 -1 -2 -0 4 6 3 2 3 7 26 12 8 3 4 8 7 7 4 7 11 11 11 12 11 11 12 11 9 12 9 11 12 14 15 15 17 15 15 17 16 15 15 15 14
-1 -0 -0 2 4 4 2 4 6 18 26 12 8 9 9 8 8 6 7 6 6 10 9 11 9 9 10 9 9 9 11 12 12 14 19 16 16 16 16 15 14 14 14 14 14
0 0 1 1 5 2 4 7 17 23 14 15 12 9 9 10 10 10 11 11 13 15 15 12 12 10 9 11 10 10 13 19 20 20 20 14 16 15 13 11 13 14 14 14 14
1 2 2 2 3 3 6 13 23 23 20 11 10 10 12 10 10 10 12 13 10 12 15 16 17 11 9 11 13 12 13 18 22 22 19 15 18 15 15 12 13 13 14 14 14
3 6 6 3 2 4 9 21 21 19 10 11 11 12 13 10 11 11 11 13 11 10 15 15 16 11 10 9 10 13 15 12 16 19 19 17 15 16 15 14 13 13 13 14 13
7 8 6 3 4 7 13 16 17 10 8 9 14 13 17 13 13 13 13 10 11 9 9 12 16 12 12 10 10 12 10 16 15 21 22 18 18 16 17 15 14 14 14 14 14
8 12 6 4 6 11 18 21 13 9 8 10 15 13 12 13 12 13 13 10 9 9 8 10 13 14 12 13 14 13 14 14 14 16 20 21 18 15 15 14 14 14 14 14 14
10 16 6 6 13 25 20 12 9 10 8 8 9 10 13 11 13 13 14 11 8 8 12 10 13 18 15 13 12 12 13 13 17 18 16 17 18 15 14 13 13 14 14 14 14
14 12 7 7 17 21 19 13 10 11 10 10 11 10 10 12 13 12 11 8 7 9 11 10 14 17 16 13 11 13 12 12 12 13 17 19 17 15 13 14 13 14 13 14 14
12 17 13 13 13 14 17 19 18 10 10 10 10 10 11 12 10 12 12 9 8 8 7 8 12 15 18 16 14 15 13 12 13 17 16 16 16 16 15 15 14 13 13 14 14
14 17 14 19 16 14 14 17 19 17 11 11 11 12 12 14 13 13 11 10 8 8 8 10 17 13 14 14 13 14 14 13 13 14 16 16 17 15 15 14 14 13 13 14 15
15 15 13 14 12 13 12 14 14 14 12 13 12 12 12 15 13 14 13 12 12 10 10 10 20 15 15 13 14 14 13 13 13 14 16 16 16 15 15 15 15 14 13 14 14
13 11 12 13 13 14 14 12 11 10 10 10 12 13 12 13 11 11 11 12 11 13 11 12 15 15 17 16 16 16 14 13 13 14 15 16 14 16 17 15 15 14 13 13 13